LOCATION_NAME,SAMPLE COLLECTION TIME,DOSE EQUIVALENT RATE (nSv/h),GAMMA COUNT RATE R02 (CPM),GAMMA COUNT RATE R03 (CPM),GAMMA COUNT RATE R04 (CPM),GAMMA COUNT RATE R05 (CPM),GAMMA COUNT RATE R06 (CPM),GAMMA COUNT RATE R07 (CPM),GAMMA COUNT RATE R08 (CPM),GAMMA COUNT RATE R09 (CPM),STATUS
IN: INDIANAPOLIS,01/01/2010 00:37:00,,1714.00,1057.00,291.00,187.00,97.00,122.00,80.00,36.00,APPROVED
IN: INDIANAPOLIS,01/01/2010 01:37:00,,1897.00,1210.00,330.00,219.00,110.00,143.00,89.00,37.00,APPROVED
IN: INDIANAPOLIS,01/01/2010 02:37:00,,1961.00,1288.00,350.00,244.00,118.00,155.00,95.00,38.00,APPROVED
IN: INDIANAPOLIS,01/01/2010 03:37:00,,1847.00,1195.00,334.00,227.00,111.00,149.00,92.00,36.00,APPROVED
IN: INDIANAPOLIS,01/01/2010 04:37:00,,1754.00,1114.00,315.00,203.00,105.00,135.00,85.00,35.00,APPROVED
IN: INDIANAPOLIS,01/01/2010 05:38:00,,1692.00,1013.00,313.00,161.00,95.00,132.00,63.00,33.00,APPROVED
IN: INDIANAPOLIS,01/01/2010 06:38:00,,1676.00,951.00,304.00,140.00,89.00,128.00,51.00,30.00,APPROVED
IN: INDIANAPOLIS,01/01/2010 07:38:00,,1627.00,963.00,289.00,157.00,91.00,118.00,72.00,31.00,APPROVED
IN: INDIANAPOLIS,01/01/2010 08:38:00,,1605.00,953.00,282.00,161.00,91.00,116.00,73.00,33.00,APPROVED
IN: INDIANAPOLIS,01/01/2010 09:39:00,,1586.00,942.00,275.00,162.00,89.00,113.00,75.00,32.00,APPROVED
IN: INDIANAPOLIS,01/01/2010 10:39:00,,1583.00,949.00,275.00,158.00,90.00,109.00,72.00,34.00,APPROVED
IN: INDIANAPOLIS,01/01/2010 11:39:00,,1587.00,935.00,274.00,159.00,92.00,112.00,72.00,33.00,APPROVED
IN: INDIANAPOLIS,01/01/2010 12:39:00,,1588.00,941.00,273.00,155.00,89.00,115.00,70.00,32.00,APPROVED
IN: INDIANAPOLIS,01/01/2010 13:39:00,,1585.00,944.00,274.00,157.00,87.00,112.00,72.00,32.00,APPROVED
IN: INDIANAPOLIS,01/01/2010 14:39:00,,1589.00,933.00,272.00,159.00,88.00,110.00,70.00,32.00,APPROVED
IN: INDIANAPOLIS,01/01/2010 15:40:00,,1592.00,924.00,264.00,153.00,86.00,106.00,70.00,32.00,APPROVED
IN: INDIANAPOLIS,01/01/2010 16:40:00,,1587.00,913.00,260.00,154.00,86.00,107.00,70.00,30.00,APPROVED
IN: INDIANAPOLIS,01/01/2010 17:40:00,,1574.00,913.00,262.00,148.00,86.00,105.00,71.00,32.00,APPROVED
IN: INDIANAPOLIS,01/01/2010 18:40:00,,1568.00,904.00,256.00,149.00,84.00,102.00,69.00,32.00,APPROVED
IN: INDIANAPOLIS,01/01/2010 19:41:00,,1561.00,890.00,254.00,144.00,83.00,103.00,68.00,31.00,APPROVED
IN: INDIANAPOLIS,01/01/2010 20:41:00,,1551.00,878.00,256.00,143.00,84.00,102.00,68.00,30.00,APPROVED
IN: INDIANAPOLIS,01/01/2010 21:41:00,,1538.00,867.00,251.00,138.00,84.00,100.00,67.00,29.00,APPROVED
IN: INDIANAPOLIS,01/01/2010 22:41:00,,1531.00,862.00,250.00,138.00,82.00,98.00,67.00,31.00,APPROVED
IN: INDIANAPOLIS,01/01/2010 23:41:00,,1521.00,860.00,246.00,138.00,81.00,99.00,65.00,29.00,APPROVED
IN: INDIANAPOLIS,01/02/2010 00:42:00,,1512.00,849.00,250.00,137.00,81.00,100.00,66.00,31.00,APPROVED
IN: INDIANAPOLIS,01/02/2010 01:42:00,,1503.00,852.00,248.00,136.00,81.00,100.00,65.00,30.00,APPROVED
IN: INDIANAPOLIS,01/02/2010 02:42:00,,1510.00,846.00,249.00,138.00,81.00,97.00,66.00,30.00,APPROVED
IN: INDIANAPOLIS,01/02/2010 03:42:00,,1492.00,843.00,248.00,134.00,81.00,100.00,64.00,30.00,APPROVED
IN: INDIANAPOLIS,01/02/2010 04:42:00,,1511.00,857.00,253.00,136.00,82.00,99.00,63.00,30.00,APPROVED
IN: INDIANAPOLIS,01/02/2010 05:43:00,,1532.00,865.00,252.00,139.00,81.00,99.00,67.00,32.00,APPROVED
IN: INDIANAPOLIS,01/02/2010 06:43:00,,1515.00,865.00,254.00,139.00,82.00,102.00,66.00,30.00,APPROVED
IN: INDIANAPOLIS,01/02/2010 07:43:00,,1526.00,863.00,253.00,139.00,81.00,101.00,65.00,31.00,APPROVED
IN: INDIANAPOLIS,01/02/2010 08:43:00,,1524.00,874.00,252.00,141.00,84.00,102.00,67.00,31.00,APPROVED
IN: INDIANAPOLIS,01/02/2010 09:43:00,,1539.00,871.00,263.00,142.00,83.00,105.00,66.00,30.00,APPROVED
IN: INDIANAPOLIS,01/02/2010 10:44:00,,1528.00,871.00,255.00,139.00,81.00,103.00,68.00,30.00,APPROVED
IN: INDIANAPOLIS,01/02/2010 11:44:00,,1522.00,868.00,255.00,143.00,84.00,102.00,67.00,30.00,APPROVED
IN: INDIANAPOLIS,01/02/2010 12:44:00,,1502.00,853.00,250.00,139.00,83.00,101.00,66.00,31.00,APPROVED
IN: INDIANAPOLIS,01/02/2010 13:44:00,,1508.00,857.00,250.00,139.00,80.00,100.00,68.00,31.00,APPROVED
IN: INDIANAPOLIS,01/02/2010 14:44:00,,1526.00,878.00,255.00,142.00,83.00,101.00,65.00,30.00,APPROVED
IN: INDIANAPOLIS,01/02/2010 15:45:00,,1525.00,865.00,255.00,140.00,84.00,101.00,67.00,30.00,APPROVED
IN: INDIANAPOLIS,01/02/2010 16:45:00,,1512.00,851.00,249.00,138.00,82.00,98.00,67.00,30.00,APPROVED
IN: INDIANAPOLIS,01/02/2010 17:45:00,,1518.00,844.00,243.00,133.00,81.00,96.00,66.00,29.00,APPROVED
IN: INDIANAPOLIS,01/02/2010 18:45:00,,1502.00,836.00,250.00,136.00,81.00,96.00,65.00,32.00,APPROVED
IN: INDIANAPOLIS,01/02/2010 19:45:00,,1484.00,827.00,236.00,133.00,81.00,95.00,65.00,29.00,APPROVED
IN: INDIANAPOLIS,01/02/2010 20:46:00,,1478.00,819.00,239.00,128.00,78.00,93.00,63.00,29.00,APPROVED
IN: INDIANAPOLIS,01/02/2010 21:46:00,,1468.00,810.00,237.00,127.00,79.00,94.00,64.00,30.00,APPROVED
IN: INDIANAPOLIS,01/02/2010 22:46:00,,1463.00,812.00,236.00,128.00,77.00,95.00,63.00,30.00,APPROVED
IN: INDIANAPOLIS,01/02/2010 23:46:00,,1477.00,823.00,241.00,128.00,81.00,96.00,64.00,30.00,APPROVED
IN: INDIANAPOLIS,01/03/2010 00:46:00,,1451.00,788.00,241.00,121.00,77.00,99.00,52.00,30.00,APPROVED
IN: INDIANAPOLIS,01/03/2010 01:47:00,,1483.00,776.00,237.00,111.00,75.00,107.00,35.00,30.00,APPROVED
IN: INDIANAPOLIS,01/03/2010 02:47:00,,1487.00,806.00,249.00,118.00,78.00,105.00,44.00,31.00,APPROVED
IN: INDIANAPOLIS,01/03/2010 03:47:00,,1475.00,829.00,247.00,129.00,78.00,97.00,62.00,30.00,APPROVED
IN: INDIANAPOLIS,01/03/2010 04:47:00,,1482.00,830.00,248.00,131.00,79.00,98.00,65.00,29.00,APPROVED
IN: INDIANAPOLIS,01/03/2010 05:47:00,,1481.00,844.00,257.00,135.00,81.00,98.00,65.00,31.00,APPROVED
IN: INDIANAPOLIS,01/03/2010 06:48:00,,1490.00,851.00,250.00,136.00,83.00,101.00,65.00,30.00,APPROVED
IN: INDIANAPOLIS,01/03/2010 07:48:00,,1487.00,844.00,251.00,138.00,81.00,101.00,65.00,30.00,APPROVED
IN: INDIANAPOLIS,01/03/2010 08:48:00,,1473.00,809.00,249.00,122.00,80.00,107.00,47.00,29.00,APPROVED
IN: INDIANAPOLIS,01/03/2010 09:48:00,,1460.00,824.00,248.00,124.00,78.00,102.00,59.00,30.00,APPROVED
IN: INDIANAPOLIS,01/03/2010 10:48:00,,1475.00,833.00,250.00,131.00,79.00,98.00,64.00,29.00,APPROVED
IN: INDIANAPOLIS,01/03/2010 11:49:00,,1478.00,840.00,251.00,132.00,81.00,100.00,62.00,30.00,APPROVED
IN: INDIANAPOLIS,01/03/2010 12:49:00,,1479.00,846.00,249.00,136.00,80.00,99.00,65.00,30.00,APPROVED
IN: INDIANAPOLIS,01/03/2010 13:49:00,,1486.00,855.00,250.00,135.00,82.00,99.00,62.00,29.00,APPROVED
IN: INDIANAPOLIS,01/03/2010 14:49:00,,1496.00,853.00,250.00,134.00,85.00,101.00,64.00,31.00,APPROVED
IN: INDIANAPOLIS,01/03/2010 15:49:00,,1504.00,864.00,254.00,140.00,82.00,101.00,66.00,30.00,APPROVED
IN: INDIANAPOLIS,01/03/2010 16:50:00,,1521.00,860.00,247.00,137.00,81.00,101.00,67.00,32.00,APPROVED
IN: INDIANAPOLIS,01/03/2010 17:50:00,,1500.00,832.00,245.00,135.00,80.00,96.00,66.00,30.00,APPROVED
IN: INDIANAPOLIS,01/03/2010 18:50:00,,1507.00,830.00,242.00,129.00,79.00,94.00,65.00,29.00,APPROVED
IN: INDIANAPOLIS,01/03/2010 19:50:00,,1497.00,821.00,239.00,130.00,78.00,92.00,65.00,30.00,APPROVED
IN: INDIANAPOLIS,01/03/2010 20:50:00,,1502.00,831.00,243.00,132.00,79.00,96.00,64.00,31.00,APPROVED
IN: INDIANAPOLIS,01/03/2010 21:51:00,,1493.00,823.00,239.00,129.00,81.00,94.00,65.00,31.00,APPROVED
IN: INDIANAPOLIS,01/03/2010 22:51:00,,1477.00,812.00,238.00,130.00,77.00,95.00,65.00,29.00,APPROVED
IN: INDIANAPOLIS,01/03/2010 23:51:00,,1446.00,806.00,231.00,127.00,76.00,92.00,63.00,30.00,APPROVED
IN: INDIANAPOLIS,01/04/2010 00:51:00,,1438.00,790.00,234.00,126.00,77.00,92.00,64.00,28.00,APPROVED
IN: INDIANAPOLIS,01/04/2010 01:51:00,,1435.00,788.00,229.00,124.00,76.00,92.00,62.00,29.00,APPROVED
IN: INDIANAPOLIS,01/04/2010 02:52:00,,1452.00,800.00,232.00,124.00,75.00,91.00,63.00,29.00,APPROVED
IN: INDIANAPOLIS,01/04/2010 03:52:00,,1478.00,820.00,239.00,132.00,78.00,94.00,65.00,30.00,APPROVED
IN: INDIANAPOLIS,01/04/2010 04:52:00,,1496.00,840.00,249.00,138.00,83.00,99.00,66.00,29.00,APPROVED
IN: INDIANAPOLIS,01/04/2010 05:52:00,,1501.00,842.00,248.00,135.00,81.00,100.00,67.00,31.00,APPROVED
IN: INDIANAPOLIS,01/04/2010 06:52:00,,1494.00,842.00,248.00,135.00,82.00,97.00,65.00,29.00,APPROVED
IN: INDIANAPOLIS,01/04/2010 07:53:00,,1490.00,835.00,243.00,134.00,79.00,98.00,65.00,30.00,APPROVED
IN: INDIANAPOLIS,01/04/2010 08:53:00,,1478.00,827.00,238.00,132.00,80.00,95.00,65.00,29.00,APPROVED
IN: INDIANAPOLIS,01/04/2010 09:53:00,,1470.00,819.00,241.00,132.00,77.00,94.00,63.00,30.00,APPROVED
IN: INDIANAPOLIS,01/04/2010 10:53:00,,1457.00,811.00,237.00,127.00,79.00,94.00,64.00,29.00,APPROVED
IN: INDIANAPOLIS,01/04/2010 11:53:00,,1455.00,812.00,240.00,130.00,76.00,94.00,65.00,29.00,APPROVED
IN: INDIANAPOLIS,01/04/2010 12:54:00,,1469.00,823.00,241.00,129.00,81.00,96.00,63.00,28.00,APPROVED
IN: INDIANAPOLIS,01/04/2010 13:54:00,,1466.00,826.00,241.00,131.00,79.00,98.00,66.00,29.00,APPROVED
IN: INDIANAPOLIS,01/04/2010 14:46:00,,1489.00,832.00,246.00,134.00,79.00,96.00,67.00,29.00,APPROVED
IN: INDIANAPOLIS,01/04/2010 16:02:00,,1454.00,794.00,230.00,125.00,76.00,94.00,64.00,29.00,APPROVED
IN: INDIANAPOLIS,01/04/2010 17:02:00,,1486.00,837.00,240.00,132.00,79.00,95.00,63.00,31.00,APPROVED
IN: INDIANAPOLIS,01/04/2010 18:02:00,,1507.00,841.00,247.00,136.00,81.00,99.00,65.00,32.00,APPROVED
IN: INDIANAPOLIS,01/04/2010 19:03:00,,1514.00,852.00,244.00,136.00,81.00,99.00,68.00,31.00,APPROVED
IN: INDIANAPOLIS,01/04/2010 20:03:00,,1511.00,848.00,244.00,137.00,80.00,98.00,65.00,31.00,APPROVED
IN: INDIANAPOLIS,01/04/2010 21:03:00,,1505.00,835.00,244.00,138.00,81.00,98.00,67.00,29.00,APPROVED
IN: INDIANAPOLIS,01/04/2010 22:03:00,,1502.00,844.00,247.00,140.00,82.00,98.00,68.00,30.00,APPROVED
IN: INDIANAPOLIS,01/04/2010 23:03:00,,1512.00,858.00,247.00,139.00,80.00,99.00,68.00,30.00,APPROVED
IN: INDIANAPOLIS,01/05/2010 00:04:00,,1533.00,874.00,256.00,141.00,82.00,104.00,68.00,30.00,APPROVED
IN: INDIANAPOLIS,01/05/2010 01:04:00,,1536.00,885.00,257.00,146.00,82.00,102.00,70.00,31.00,APPROVED
IN: INDIANAPOLIS,01/05/2010 02:04:00,,1543.00,886.00,257.00,145.00,83.00,105.00,68.00,32.00,APPROVED
IN: INDIANAPOLIS,01/05/2010 03:04:00,,1531.00,881.00,258.00,144.00,85.00,104.00,69.00,31.00,APPROVED
IN: INDIANAPOLIS,01/05/2010 04:04:00,,1522.00,866.00,256.00,143.00,83.00,102.00,68.00,31.00,APPROVED
IN: INDIANAPOLIS,01/05/2010 05:05:00,,1525.00,882.00,258.00,141.00,84.00,101.00,68.00,32.00,APPROVED
IN: INDIANAPOLIS,01/05/2010 06:05:00,,1524.00,883.00,257.00,145.00,83.00,105.00,66.00,30.00,APPROVED
IN: INDIANAPOLIS,01/05/2010 07:05:00,,1536.00,881.00,257.00,149.00,87.00,104.00,67.00,31.00,APPROVED
IN: INDIANAPOLIS,01/05/2010 08:05:00,,1546.00,893.00,266.00,147.00,85.00,106.00,69.00,31.00,APPROVED
IN: INDIANAPOLIS,01/05/2010 09:05:00,,1532.00,901.00,263.00,145.00,83.00,107.00,68.00,32.00,APPROVED
IN: INDIANAPOLIS,01/05/2010 10:06:00,,1532.00,890.00,255.00,147.00,86.00,106.00,70.00,31.00,APPROVED
IN: INDIANAPOLIS,01/05/2010 11:06:00,,1535.00,891.00,260.00,145.00,86.00,106.00,68.00,31.00,APPROVED
IN: INDIANAPOLIS,01/05/2010 12:06:00,,1558.00,900.00,266.00,151.00,87.00,108.00,69.00,31.00,APPROVED
IN: INDIANAPOLIS,01/05/2010 13:06:00,,1562.00,908.00,267.00,153.00,84.00,107.00,70.00,31.00,APPROVED
IN: INDIANAPOLIS,01/05/2010 14:06:00,,1560.00,914.00,270.00,155.00,86.00,108.00,71.00,31.00,APPROVED
IN: INDIANAPOLIS,01/05/2010 15:07:00,,1562.00,899.00,265.00,150.00,89.00,108.00,69.00,31.00,APPROVED
IN: INDIANAPOLIS,01/05/2010 16:07:00,,1562.00,911.00,263.00,153.00,86.00,105.00,69.00,32.00,APPROVED
IN: INDIANAPOLIS,01/05/2010 17:07:00,,1566.00,911.00,262.00,151.00,87.00,108.00,69.00,31.00,APPROVED
IN: INDIANAPOLIS,01/05/2010 18:07:00,,1575.00,918.00,261.00,152.00,86.00,108.00,69.00,31.00,APPROVED
IN: INDIANAPOLIS,01/05/2010 19:08:00,,1558.00,900.00,261.00,154.00,89.00,107.00,69.00,32.00,APPROVED
IN: INDIANAPOLIS,01/05/2010 20:08:00,,1511.00,870.00,253.00,143.00,84.00,103.00,69.00,31.00,APPROVED
IN: INDIANAPOLIS,01/05/2010 21:08:00,,1490.00,846.00,246.00,139.00,79.00,98.00,66.00,30.00,APPROVED
IN: INDIANAPOLIS,01/05/2010 22:08:00,,1497.00,845.00,245.00,137.00,82.00,100.00,65.00,29.00,APPROVED
IN: INDIANAPOLIS,01/05/2010 23:08:00,,1492.00,863.00,251.00,140.00,80.00,99.00,66.00,31.00,APPROVED
IN: INDIANAPOLIS,01/06/2010 00:09:00,,1530.00,880.00,255.00,146.00,85.00,105.00,69.00,31.00,APPROVED
IN: INDIANAPOLIS,01/06/2010 01:09:00,,1555.00,907.00,263.00,150.00,85.00,106.00,71.00,32.00,APPROVED
IN: INDIANAPOLIS,01/06/2010 02:09:00,,1567.00,911.00,267.00,154.00,86.00,107.00,71.00,31.00,APPROVED
IN: INDIANAPOLIS,01/06/2010 03:09:00,,1577.00,929.00,269.00,157.00,86.00,108.00,71.00,31.00,APPROVED
IN: INDIANAPOLIS,01/06/2010 04:09:00,,1598.00,937.00,269.00,160.00,89.00,110.00,73.00,32.00,APPROVED
IN: INDIANAPOLIS,01/06/2010 05:10:00,,1608.00,949.00,272.00,161.00,89.00,111.00,72.00,31.00,APPROVED
IN: INDIANAPOLIS,01/06/2010 06:10:00,,1617.00,942.00,273.00,158.00,91.00,113.00,73.00,32.00,APPROVED
IN: INDIANAPOLIS,01/06/2010 07:10:00,,1606.00,943.00,269.00,158.00,86.00,111.00,71.00,32.00,APPROVED
IN: INDIANAPOLIS,01/06/2010 08:10:00,,1600.00,937.00,272.00,155.00,89.00,109.00,74.00,32.00,APPROVED
IN: INDIANAPOLIS,01/06/2010 09:10:00,,1604.00,933.00,268.00,158.00,90.00,111.00,72.00,32.00,APPROVED
IN: INDIANAPOLIS,01/06/2010 10:11:00,,1605.00,949.00,271.00,159.00,89.00,108.00,72.00,32.00,APPROVED
IN: INDIANAPOLIS,01/06/2010 11:11:00,,1607.00,939.00,271.00,158.00,88.00,109.00,73.00,31.00,APPROVED
IN: INDIANAPOLIS,01/06/2010 12:11:00,,1599.00,945.00,270.00,159.00,90.00,112.00,72.00,32.00,APPROVED
IN: INDIANAPOLIS,01/06/2010 13:11:00,,1578.00,924.00,269.00,154.00,89.00,110.00,72.00,31.00,APPROVED
IN: INDIANAPOLIS,01/06/2010 14:11:00,,1568.00,912.00,265.00,152.00,88.00,106.00,69.00,32.00,APPROVED
IN: INDIANAPOLIS,01/06/2010 15:12:00,,1552.00,901.00,264.00,152.00,84.00,103.00,69.00,30.00,APPROVED
IN: INDIANAPOLIS,01/06/2010 16:12:00,,1566.00,906.00,261.00,153.00,85.00,106.00,70.00,32.00,APPROVED
IN: INDIANAPOLIS,01/06/2010 17:12:00,,1551.00,899.00,259.00,150.00,86.00,104.00,71.00,31.00,APPROVED
IN: INDIANAPOLIS,01/06/2010 18:12:00,,1532.00,882.00,250.00,146.00,84.00,103.00,69.00,31.00,APPROVED
IN: INDIANAPOLIS,01/06/2010 19:12:00,,1506.00,856.00,248.00,144.00,84.00,101.00,66.00,31.00,APPROVED
IN: INDIANAPOLIS,01/06/2010 20:13:00,,1513.00,856.00,248.00,142.00,80.00,101.00,66.00,31.00,APPROVED
IN: INDIANAPOLIS,01/06/2010 21:13:00,,1512.00,854.00,248.00,138.00,82.00,99.00,65.00,31.00,APPROVED
IN: INDIANAPOLIS,01/06/2010 22:13:00,,1490.00,848.00,242.00,137.00,79.00,98.00,66.00,32.00,APPROVED
IN: INDIANAPOLIS,01/06/2010 23:13:00,,1496.00,837.00,243.00,137.00,79.00,98.00,67.00,31.00,APPROVED
IN: INDIANAPOLIS,01/07/2010 00:13:00,,1507.00,864.00,245.00,138.00,81.00,98.00,67.00,32.00,APPROVED
IN: INDIANAPOLIS,01/07/2010 01:14:00,,1539.00,896.00,255.00,150.00,84.00,105.00,69.00,31.00,APPROVED
IN: INDIANAPOLIS,01/07/2010 02:14:00,,1552.00,919.00,262.00,154.00,86.00,107.00,71.00,31.00,APPROVED
IN: INDIANAPOLIS,01/07/2010 03:14:00,,1569.00,943.00,266.00,158.00,88.00,112.00,73.00,31.00,APPROVED
IN: INDIANAPOLIS,01/07/2010 04:14:00,,1567.00,933.00,265.00,159.00,87.00,110.00,74.00,34.00,APPROVED
IN: INDIANAPOLIS,01/07/2010 05:14:00,,1540.00,892.00,258.00,151.00,84.00,105.00,69.00,31.00,APPROVED
IN: INDIANAPOLIS,01/07/2010 06:15:00,,1519.00,876.00,252.00,144.00,84.00,100.00,68.00,31.00,APPROVED
IN: INDIANAPOLIS,01/07/2010 07:15:00,,1518.00,865.00,251.00,145.00,82.00,100.00,68.00,33.00,APPROVED
IN: INDIANAPOLIS,01/07/2010 08:15:00,,1502.00,850.00,249.00,139.00,84.00,100.00,65.00,31.00,APPROVED
IN: INDIANAPOLIS,01/07/2010 09:15:00,,1528.00,878.00,256.00,147.00,84.00,101.00,70.00,31.00,APPROVED
IN: INDIANAPOLIS,01/07/2010 10:15:00,,1598.00,949.00,275.00,161.00,89.00,113.00,73.00,32.00,APPROVED
IN: INDIANAPOLIS,01/07/2010 11:16:00,,1624.00,956.00,279.00,170.00,91.00,113.00,73.00,33.00,APPROVED
IN: INDIANAPOLIS,01/07/2010 12:16:00,,1603.00,943.00,274.00,158.00,89.00,111.00,72.00,33.00,APPROVED
IN: INDIANAPOLIS,01/07/2010 12:26:00,,1640.00,975.00,278.00,158.00,89.00,119.00,77.00,33.00,APPROVED
IN: INDIANAPOLIS,01/07/2010 13:44:00,,1617.00,945.00,271.00,158.00,89.00,109.00,71.00,31.00,APPROVED
IN: INDIANAPOLIS,01/07/2010 14:44:00,,1652.00,972.00,283.00,165.00,92.00,113.00,74.00,31.00,APPROVED
IN: INDIANAPOLIS,01/07/2010 15:44:00,,1704.00,1022.00,293.00,178.00,96.00,121.00,76.00,32.00,APPROVED
IN: INDIANAPOLIS,01/07/2010 16:45:00,,1697.00,1014.00,290.00,174.00,94.00,119.00,78.00,33.00,APPROVED
IN: INDIANAPOLIS,01/07/2010 17:45:00,,1780.00,1090.00,310.00,193.00,99.00,128.00,81.00,35.00,APPROVED
IN: INDIANAPOLIS,01/07/2010 18:45:00,,1723.00,1053.00,299.00,187.00,97.00,124.00,78.00,35.00,APPROVED
IN: INDIANAPOLIS,01/07/2010 19:45:00,,1667.00,990.00,282.00,171.00,90.00,116.00,76.00,34.00,APPROVED
IN: INDIANAPOLIS,01/07/2010 20:45:00,,1624.00,958.00,273.00,166.00,89.00,113.00,73.00,35.00,APPROVED
IN: INDIANAPOLIS,01/07/2010 21:46:00,,1614.00,960.00,276.00,165.00,88.00,112.00,74.00,32.00,APPROVED
IN: INDIANAPOLIS,01/07/2010 22:46:00,,1648.00,990.00,284.00,176.00,92.00,119.00,76.00,32.00,APPROVED
IN: INDIANAPOLIS,01/07/2010 23:46:00,,1618.00,988.00,282.00,175.00,92.00,120.00,73.00,32.00,APPROVED
IN: INDIANAPOLIS,01/08/2010 00:46:00,,1585.00,949.00,280.00,166.00,88.00,115.00,72.00,32.00,APPROVED
IN: INDIANAPOLIS,01/08/2010 01:46:00,,1561.00,929.00,270.00,158.00,88.00,109.00,71.00,32.00,APPROVED
IN: INDIANAPOLIS,01/08/2010 02:47:00,,1592.00,949.00,277.00,161.00,88.00,112.00,72.00,31.00,APPROVED
IN: INDIANAPOLIS,01/08/2010 03:47:00,,1601.00,961.00,275.00,168.00,92.00,118.00,73.00,32.00,APPROVED
IN: INDIANAPOLIS,01/08/2010 04:47:00,,1598.00,974.00,285.00,169.00,92.00,117.00,74.00,33.00,APPROVED
IN: INDIANAPOLIS,01/08/2010 05:47:00,,1600.00,977.00,282.00,169.00,91.00,119.00,74.00,33.00,APPROVED
IN: INDIANAPOLIS,01/08/2010 06:48:00,,1570.00,950.00,279.00,163.00,89.00,118.00,74.00,31.00,APPROVED
IN: INDIANAPOLIS,01/08/2010 07:48:00,,1527.00,909.00,267.00,157.00,87.00,107.00,70.00,33.00,APPROVED
IN: INDIANAPOLIS,01/08/2010 08:48:00,,1479.00,865.00,252.00,145.00,82.00,102.00,67.00,30.00,APPROVED
IN: INDIANAPOLIS,01/08/2010 09:48:00,,1479.00,844.00,246.00,138.00,80.00,103.00,66.00,32.00,APPROVED
IN: INDIANAPOLIS,01/08/2010 10:48:00,,1480.00,843.00,245.00,137.00,82.00,100.00,66.00,30.00,APPROVED
IN: INDIANAPOLIS,01/08/2010 11:49:00,,1478.00,833.00,240.00,137.00,80.00,99.00,65.00,31.00,APPROVED
IN: INDIANAPOLIS,01/08/2010 12:49:00,,1471.00,829.00,241.00,135.00,81.00,99.00,66.00,30.00,APPROVED
IN: INDIANAPOLIS,01/08/2010 13:49:00,,1483.00,833.00,243.00,140.00,82.00,97.00,64.00,30.00,APPROVED
IN: INDIANAPOLIS,01/08/2010 14:49:00,,1497.00,844.00,246.00,138.00,79.00,100.00,65.00,32.00,APPROVED
IN: INDIANAPOLIS,01/08/2010 15:49:00,,1501.00,863.00,247.00,144.00,79.00,100.00,66.00,30.00,APPROVED
IN: INDIANAPOLIS,01/08/2010 16:50:00,,1516.00,862.00,248.00,144.00,83.00,100.00,68.00,30.00,APPROVED
IN: INDIANAPOLIS,01/08/2010 17:50:00,,1524.00,879.00,250.00,147.00,82.00,100.00,68.00,31.00,APPROVED
IN: INDIANAPOLIS,01/08/2010 18:50:00,,1524.00,876.00,249.00,148.00,83.00,101.00,66.00,31.00,APPROVED
IN: INDIANAPOLIS,01/08/2010 19:50:00,,1539.00,886.00,250.00,149.00,82.00,101.00,68.00,31.00,APPROVED
IN: INDIANAPOLIS,01/08/2010 20:50:00,,1526.00,874.00,251.00,149.00,83.00,101.00,66.00,31.00,APPROVED
IN: INDIANAPOLIS,01/08/2010 21:51:00,,1498.00,863.00,248.00,145.00,81.00,100.00,67.00,32.00,APPROVED
IN: INDIANAPOLIS,01/08/2010 22:51:00,,1426.00,799.00,236.00,135.00,78.00,91.00,64.00,30.00,APPROVED
IN: INDIANAPOLIS,01/08/2010 23:51:00,,1408.00,776.00,227.00,126.00,72.00,89.00,60.00,30.00,APPROVED
IN: INDIANAPOLIS,01/09/2010 00:51:00,,1410.00,779.00,227.00,125.00,75.00,88.00,61.00,29.00,APPROVED
IN: INDIANAPOLIS,01/09/2010 01:51:00,,1418.00,777.00,227.00,124.00,74.00,89.00,61.00,29.00,APPROVED
IN: INDIANAPOLIS,01/09/2010 02:52:00,,1404.00,778.00,227.00,126.00,74.00,90.00,62.00,28.00,APPROVED
IN: INDIANAPOLIS,01/09/2010 03:52:00,,1420.00,783.00,223.00,124.00,76.00,90.00,62.00,29.00,APPROVED
IN: INDIANAPOLIS,01/09/2010 04:52:00,,1427.00,775.00,227.00,124.00,76.00,89.00,61.00,31.00,APPROVED
IN: INDIANAPOLIS,01/09/2010 05:52:00,,1409.00,778.00,226.00,125.00,75.00,89.00,60.00,30.00,APPROVED
IN: INDIANAPOLIS,01/09/2010 06:52:00,,1413.00,776.00,225.00,125.00,75.00,92.00,61.00,29.00,APPROVED
IN: INDIANAPOLIS,01/09/2010 07:53:00,,1413.00,783.00,229.00,126.00,73.00,91.00,62.00,29.00,APPROVED
IN: INDIANAPOLIS,01/09/2010 08:53:00,,1421.00,790.00,230.00,129.00,76.00,92.00,63.00,30.00,APPROVED
IN: INDIANAPOLIS,01/09/2010 09:53:00,,1438.00,799.00,231.00,128.00,76.00,92.00,63.00,28.00,APPROVED
IN: INDIANAPOLIS,01/09/2010 10:53:00,,1438.00,803.00,229.00,127.00,77.00,92.00,62.00,29.00,APPROVED
IN: INDIANAPOLIS,01/09/2010 11:53:00,,1440.00,796.00,233.00,131.00,78.00,94.00,62.00,29.00,APPROVED
IN: INDIANAPOLIS,01/09/2010 12:54:00,,1451.00,803.00,234.00,130.00,76.00,96.00,63.00,30.00,APPROVED
IN: INDIANAPOLIS,01/09/2010 13:54:00,,1452.00,818.00,235.00,133.00,77.00,93.00,63.00,29.00,APPROVED
IN: INDIANAPOLIS,01/09/2010 14:54:00,,1470.00,832.00,241.00,135.00,78.00,97.00,62.00,30.00,APPROVED
IN: INDIANAPOLIS,01/09/2010 15:54:00,,1468.00,824.00,241.00,134.00,78.00,97.00,63.00,30.00,APPROVED
IN: INDIANAPOLIS,01/09/2010 16:54:00,,1449.00,818.00,240.00,134.00,78.00,94.00,62.00,30.00,APPROVED
IN: INDIANAPOLIS,01/09/2010 17:55:00,,1446.00,811.00,237.00,132.00,77.00,95.00,64.00,29.00,APPROVED
IN: INDIANAPOLIS,01/09/2010 18:55:00,,1438.00,794.00,229.00,130.00,76.00,91.00,60.00,29.00,APPROVED
IN: INDIANAPOLIS,01/09/2010 19:55:00,,1428.00,776.00,228.00,125.00,75.00,90.00,62.00,30.00,APPROVED
IN: INDIANAPOLIS,01/09/2010 20:55:00,,1424.00,781.00,226.00,125.00,76.00,89.00,61.00,29.00,APPROVED
IN: INDIANAPOLIS,01/09/2010 21:55:00,,1429.00,784.00,226.00,123.00,75.00,90.00,62.00,30.00,APPROVED
IN: INDIANAPOLIS,01/09/2010 22:56:00,,1442.00,794.00,231.00,125.00,75.00,89.00,63.00,28.00,APPROVED
IN: INDIANAPOLIS,01/09/2010 23:56:00,,1476.00,817.00,234.00,132.00,76.00,94.00,63.00,29.00,APPROVED
IN: INDIANAPOLIS,01/10/2010 00:56:00,,1514.00,858.00,250.00,142.00,80.00,99.00,66.00,30.00,APPROVED
IN: INDIANAPOLIS,01/10/2010 01:56:00,,1530.00,877.00,252.00,147.00,84.00,103.00,68.00,30.00,APPROVED
IN: INDIANAPOLIS,01/10/2010 02:57:00,,1542.00,898.00,254.00,150.00,83.00,103.00,67.00,31.00,APPROVED
IN: INDIANAPOLIS,01/10/2010 03:57:00,,1540.00,895.00,256.00,154.00,83.00,103.00,69.00,31.00,APPROVED
IN: INDIANAPOLIS,01/10/2010 04:57:00,,1538.00,892.00,260.00,150.00,83.00,103.00,68.00,30.00,APPROVED
IN: INDIANAPOLIS,01/10/2010 05:57:00,,1535.00,894.00,255.00,151.00,86.00,105.00,69.00,30.00,APPROVED
IN: INDIANAPOLIS,01/10/2010 06:57:00,,1541.00,890.00,261.00,153.00,84.00,107.00,69.00,30.00,APPROVED
IN: INDIANAPOLIS,01/10/2010 07:58:00,,1545.00,898.00,260.00,151.00,84.00,109.00,68.00,31.00,APPROVED
IN: INDIANAPOLIS,01/10/2010 08:58:00,,1534.00,902.00,261.00,153.00,90.00,108.00,68.00,31.00,APPROVED
IN: INDIANAPOLIS,01/10/2010 09:58:00,,1543.00,916.00,266.00,153.00,86.00,107.00,68.00,32.00,APPROVED
IN: INDIANAPOLIS,01/10/2010 10:58:00,,1566.00,924.00,270.00,161.00,88.00,110.00,72.00,31.00,APPROVED
IN: INDIANAPOLIS,01/10/2010 11:58:00,,1597.00,958.00,275.00,162.00,92.00,115.00,71.00,32.00,APPROVED
IN: INDIANAPOLIS,01/10/2010 12:59:00,,1608.00,976.00,279.00,168.00,92.00,116.00,73.00,33.00,APPROVED
IN: INDIANAPOLIS,01/10/2010 13:59:00,,1629.00,990.00,287.00,173.00,90.00,120.00,76.00,34.00,APPROVED
IN: INDIANAPOLIS,01/10/2010 14:59:00,,1632.00,1003.00,280.00,174.00,95.00,120.00,77.00,33.00,APPROVED
IN: INDIANAPOLIS,01/10/2010 15:59:00,,1642.00,995.00,288.00,176.00,93.00,117.00,77.00,33.00,APPROVED
IN: INDIANAPOLIS,01/10/2010 16:59:00,,1514.00,888.00,255.00,157.00,88.00,106.00,70.00,31.00,APPROVED
IN: INDIANAPOLIS,01/10/2010 18:00:00,,1552.00,883.00,254.00,150.00,83.00,103.00,69.00,31.00,APPROVED
IN: INDIANAPOLIS,01/10/2010 19:00:00,,1463.00,824.00,237.00,138.00,77.00,96.00,64.00,31.00,APPROVED